Lewistown, MT

6:04 PM MDT on August 16, 2017 (GMT -0600)
Lewistown Municipal

Weather History for KLWT - July, 2013

Change the Weather History Date:

Friday, July 12, 2013

  Actual Average Record
Temperature  
Mean Temperature 71 °F 65 °F  
Max Temperature 83 °F 80 °F 99 °F (2002)
Min Temperature 58 °F 50 °F 36 °F (2008)
Degree Days  
Heating Degree Days 0 3  
Month to date heating degree days 6 41  
Since 1 June heating degree days 226 268  
Since 1 July heating degree days 6 41  
Cooling Degree Days 6 3  
Month to date cooling degree days 52 26  
Year to date cooling degree days 71 48  
Since 1 June cooling degree days 68 46  
Growing Degree Days 20 (Base 50)    
Moisture  
Dew Point 47 °F    
Average Humidity 55    
Maximum Humidity 86    
Minimum Humidity 24    
Precipitation  
Precipitation 0.06 in 0.07 in 0.78 in (1943)
Month to date precipitation 1.00 0.85  
Year to date precipitation 15.19 10.19  
Snow  
Snow 0.00 in - - ()
Snow Depth 0.00 in    
Sea Level Pressure  
Sea Level Pressure 29.81 in    
Wind  
Wind Speed 8 mph (SW)    
Max Wind Speed 37 mph    
Max Gust Speed 53 mph    
Visibility 10 miles    
Events Rain    
T = Trace of Precipitation, MM = Missing Value Source: NWS Daily Summary

Daily Weather History Graph

Daily Weather History Graph

Search for Another Location

Airport or City:

Trip Planner

Search our weather history database for the weather conditions in past years. The results will help you decide how hot, cold, wet, or windy it might be!

Date:

Astronomy

Jul. 12, 2013 Rise Set
Actual Time 5:35 AM MDT 9:11 PM MDT
Civil Twilight 4:56 AM MDT 9:49 PM MDT
Nautical Twilight 4:05 AM MDT 10:40 PM MDT
Astronomical Twilight 2:55 AM MDT 11:50 PM MDT
Moon 10:15 AM MDT (7/12) 11:00 PM MDT (7/12)
Length of Visible Light 16h 52m
Length of Day
15h 36m
Waxing Crescent, 18% of the Moon is Illuminated
Jul 12
Waxing Crescent
Jul 15
First Quarter
Jul 22
Full
Jul 29
Last Quarter
Aug 6
New

Hourly Weather History & Observations

Time (MDT) Temp. Dew Point Humidity Pressure Visibility Wind Dir Wind Speed Gust Speed Precip Events Conditions
12:54 AM 68.0 °F 43.0 °F 40% 29.77 in 10.0 mi West 13.8 mph - N/A   Scattered Clouds
1:54 AM 66.0 °F 44.1 °F 45% 29.76 in 10.0 mi SW 12.7 mph - N/A   Mostly Cloudy
2:54 AM 64.0 °F 41.0 °F 43% 29.78 in 10.0 mi SW 13.8 mph - N/A   Clear
3:54 AM 62.1 °F 39.9 °F 44% 29.79 in 10.0 mi SW 11.5 mph - N/A   Clear
4:54 AM 61.0 °F 39.0 °F 44% 29.81 in 10.0 mi SW 9.2 mph - N/A   Clear
5:54 AM 62.1 °F 39.0 °F 43% 29.82 in 10.0 mi Variable 4.6 mph - N/A   Clear
6:54 AM 60.1 °F 42.1 °F 51% 29.83 in 10.0 mi SW 12.7 mph - N/A   Clear
7:54 AM 68.0 °F 43.0 °F 40% 29.82 in 10.0 mi WSW 11.5 mph - N/A   Clear
8:54 AM 73.0 °F 43.0 °F 34% 29.82 in 10.0 mi WSW 13.8 mph - N/A   Clear
9:54 AM 75.0 °F 42.1 °F 31% 29.81 in 10.0 mi West 9.2 mph - N/A   Clear
10:54 AM 77.0 °F 39.9 °F 26% 29.81 in 10.0 mi WNW 4.6 mph - N/A   Clear
11:54 AM 79.0 °F 39.9 °F 25% 29.80 in 10.0 mi SW 8.1 mph - N/A   Clear
12:54 PM 82.0 °F 43.0 °F 25% 29.77 in 10.0 mi Variable 4.6 mph - N/A   Mostly Cloudy
1:54 PM 75.0 °F 48.9 °F 40% 29.80 in 10.0 mi Calm Calm - N/A   Mostly Cloudy
2:54 PM 81.0 °F 48.9 °F 33% 29.77 in - North - - 0.05 in   Unknown
3:54 PM 79.0 °F 44.1 °F 29% 29.75 in 10.0 mi West 6.9 mph - N/A Rain Light Rain
4:54 PM 71.1 °F 57.0 °F 61% 29.81 in 10.0 mi North 10.4 mph - 0.01 in   Partly Cloudy
5:54 PM 73.0 °F 53.1 °F 49% 29.78 in 10.0 mi ESE 9.2 mph - N/A   Clear
6:54 PM 73.0 °F 53.1 °F 49% 29.79 in 10.0 mi NNE 3.5 mph - N/A   Clear
7:54 PM 64.0 °F 55.0 °F 73% 29.83 in 10.0 mi NNE 8.1 mph - N/A   Clear
8:54 PM 64.0 °F 54.0 °F 70% 29.84 in 10.0 mi South 3.5 mph - N/A   Clear
9:54 PM 62.1 °F 54.0 °F 75% 29.86 in 10.0 mi Calm Calm - N/A   Clear
10:54 PM 57.9 °F 54.0 °F 87% 29.86 in 10.0 mi ENE 3.5 mph - N/A   Clear
11:46 PM 60.8 °F 51.8 °F 72% 29.97 in 10.0 mi ESE 11.5 mph - 0.00 in   Scattered Clouds
11:54 PM 60.1 °F 52.0 °F 75% 29.86 in 10.0 mi ESE 11.5 mph - 0.00 in   Partly Cloudy